User: anonymous
Location: Brno
(49.2000°N, 16.6330°E)
Time: 05:56:38
(UTC+02:00)
Language:

RESURS DK-1 - Orbit

View from above orbital plane
View from above orbital plane
View from above satellite
View from above satellite

Ground track
Ground track

The orbit data is extracted from the following two-line orbital elements,

1 29228U 06021A   14114.78499722  .00001560  00000-0  13070-3 0  7861
2 29228 069.9354 139.6992 0006454 291.8775 068.1696 15.00636636435563
Epoch (UTC): 24 April 2014 18:50:23
Eccentricity: 0.0006454
inclination: 69.9354°
perigee height: 560 km
apogee height: 569 km
right ascension of ascending node: 139.6992°
argument of perigee: 291.8775°
revolutions per day: 15.00636636
mean anomaly at epoch: 68.1696°
orbit number at epoch: 43556

The dashed part of the orbit path shows where the satellite is in the earth's shadow,  

DLR